#ZEITBEREICH: 19.05.2023 bis 19.05.2024
Datum;Zeit;VOBD NO AM1H [�g/m�];VOBD NO2 AM1H [�g/m�];VOBD PM10F GM24H [�g/m�]
19.05.2023;01:00;<7;18;12
19.05.2023;02:00;<7;23;12
19.05.2023;03:00;<7;20;12
19.05.2023;04:00;<7;19;12
19.05.2023;05:00;8;34;12
19.05.2023;06:00;22;46;13
19.05.2023;07:00;19;42;13
19.05.2023;08:00;24;36;14
19.05.2023;09:00;16;29;14
19.05.2023;10:00;;;14
19.05.2023;11:00;10;17;14
19.05.2023;12:00;10;17;14
19.05.2023;13:00;10;16;14
19.05.2023;14:00;8;17;14
19.05.2023;15:00;<7;12;15
19.05.2023;16:00;<7;11;15
19.05.2023;17:00;<7;15;15
19.05.2023;18:00;<7;11;15
19.05.2023;19:00;<7;10;14
19.05.2023;20:00;<7;14;14
19.05.2023;21:00;<7;12;14
19.05.2023;22:00;<7;14;14
19.05.2023;23:00;<7;15;14
19.05.2023;24:00;<7;15;14
20.05.2023;01:00;<7;17;14
20.05.2023;02:00;<7;18;14
20.05.2023;03:00;<7;17;14
20.05.2023;04:00;<7;10;14
20.05.2023;05:00;<7;11;14
20.05.2023;06:00;<7;12;13
20.05.2023;07:00;<7;14;13
20.05.2023;08:00;<7;11;12
20.05.2023;09:00;<7;14;12
20.05.2023;10:00;<7;12;12
20.05.2023;11:00;;;12
20.05.2023;12:00;<7;10;12
20.05.2023;13:00;<7;10;12
20.05.2023;14:00;<7;11;13
20.05.2023;15:00;<7;<10;13
20.05.2023;16:00;<7;<10;13
20.05.2023;17:00;<7;<10;13
20.05.2023;18:00;<7;<10;13
20.05.2023;19:00;<7;13;13
20.05.2023;20:00;<7;11;13
20.05.2023;21:00;<7;16;13
20.05.2023;22:00;<7;15;13
20.05.2023;23:00;<7;<10;13
20.05.2023;24:00;<7;<10;13
21.05.2023;01:00;<7;<10;14
21.05.2023;02:00;<7;<10;14
21.05.2023;03:00;<7;<10;14
21.05.2023;04:00;<7;<10;14
21.05.2023;05:00;<7;<10;14
21.05.2023;06:00;<7;<10;14
21.05.2023;07:00;<7;<10;14
21.05.2023;08:00;<7;<10;14
21.05.2023;09:00;<7;<10;14
21.05.2023;10:00;<7;<10;14
21.05.2023;11:00;<7;<10;14
21.05.2023;12:00;;;14
21.05.2023;13:00;<7;15;15
21.05.2023;14:00;<7;13;15
21.05.2023;15:00;<7;11;15
21.05.2023;16:00;<7;<10;15
21.05.2023;17:00;<7;12;16
21.05.2023;18:00;<7;12;16
21.05.2023;19:00;<7;14;17
21.05.2023;20:00;<7;18;18
21.05.2023;21:00;<7;18;18
21.05.2023;22:00;<7;17;19
21.05.2023;23:00;<7;16;19
21.05.2023;24:00;<7;16;20
22.05.2023;01:00;<7;19;20
22.05.2023;02:00;<7;13;20
22.05.2023;03:00;<7;<10;20
22.05.2023;04:00;<7;17;21
22.05.2023;05:00;12;43;21
22.05.2023;06:00;26;56;22
22.05.2023;07:00;30;52;22
22.05.2023;08:00;44;57;23
22.05.2023;09:00;34;51;24
22.05.2023;10:00;22;33;25
22.05.2023;11:00;25;39;27
22.05.2023;12:00;21;33;28
22.05.2023;13:00;;;29
22.05.2023;14:00;<7;27;30
22.05.2023;15:00;<7;27;31
22.05.2023;16:00;<7;28;31
22.05.2023;17:00;<7;31;32
22.05.2023;18:00;<7;20;32
22.05.2023;19:00;<7;<10;32
22.05.2023;20:00;<7;11;32
22.05.2023;21:00;<7;11;31
22.05.2023;22:00;<7;13;31
22.05.2023;23:00;<7;<10;30
22.05.2023;24:00;<7;<10;29
23.05.2023;01:00;<7;<10;29
23.05.2023;02:00;<7;<10;28
23.05.2023;03:00;<7;<10;28
23.05.2023;04:00;<7;<10;27
23.05.2023;05:00;<7;<10;27
23.05.2023;06:00;<7;<10;26
23.05.2023;07:00;<7;12;26
23.05.2023;08:00;<7;14;25
23.05.2023;09:00;<7;<10;24
23.05.2023;10:00;<7;<10;22
23.05.2023;11:00;<7;<10;21
23.05.2023;12:00;<7;13;20
23.05.2023;13:00;<7;11;19
23.05.2023;14:00;;;17
23.05.2023;15:00;<7;<10;17
23.05.2023;16:00;<7;<10;16
23.05.2023;17:00;<7;<10;15
23.05.2023;18:00;<7;<10;14
23.05.2023;19:00;<7;<10;14
23.05.2023;20:00;<7;<10;14
23.05.2023;21:00;<7;<10;14
23.05.2023;22:00;<7;<10;14
23.05.2023;23:00;<7;16;14
23.05.2023;24:00;<7;<10;14
24.05.2023;01:00;<7;<10;14
24.05.2023;02:00;<7;12;14
24.05.2023;03:00;<7;15;15
24.05.2023;04:00;<7;28;15
24.05.2023;05:00;20;43;15
24.05.2023;06:00;39;47;16
24.05.2023;07:00;29;41;17
24.05.2023;08:00;13;23;18
24.05.2023;09:00;12;13;18
24.05.2023;10:00;9;13;18
24.05.2023;11:00;<7;<10;18
24.05.2023;12:00;<7;13;18
24.05.2023;13:00;8;13;19
24.05.2023;14:00;<7;<10;19
24.05.2023;15:00;;;19
24.05.2023;16:00;<7;10;19
24.05.2023;17:00;<7;14;19
24.05.2023;18:00;<7;18;19
24.05.2023;19:00;<7;19;19
24.05.2023;20:00;<7;14;19
24.05.2023;21:00;<7;14;19
24.05.2023;22:00;<7;21;20
24.05.2023;23:00;<7;23;20
24.05.2023;24:00;<7;11;20
25.05.2023;01:00;<7;<10;20
25.05.2023;02:00;<7;11;21
25.05.2023;03:00;<7;14;21
25.05.2023;04:00;<7;12;21
25.05.2023;05:00;9;30;21
25.05.2023;06:00;15;36;21
25.05.2023;07:00;18;29;21
25.05.2023;08:00;17;25;20
25.05.2023;09:00;9;15;20
25.05.2023;10:00;9;18;20
25.05.2023;11:00;8;15;21
25.05.2023;12:00;<7;11;21
25.05.2023;13:00;<7;12;20
25.05.2023;14:00;7;12;20
25.05.2023;15:00;<7;13;20
25.05.2023;16:00;;;20
25.05.2023;17:00;<7;12;20
25.05.2023;18:00;<7;13;20
25.05.2023;19:00;<7;13;20
25.05.2023;20:00;<7;14;20
25.05.2023;21:00;<7;21;21
25.05.2023;22:00;<7;17;21
25.05.2023;23:00;<7;<10;21
25.05.2023;24:00;<7;<10;22
26.05.2023;01:00;<7;<10;22
26.05.2023;02:00;<7;13;22
26.05.2023;03:00;<7;12;22
26.05.2023;04:00;<7;12;22
26.05.2023;05:00;<7;17;22
26.05.2023;06:00;<7;21;23
26.05.2023;07:00;11;24;23
26.05.2023;08:00;11;18;23
26.05.2023;09:00;10;13;23
26.05.2023;10:00;10;16;23
26.05.2023;11:00;10;20;23
26.05.2023;12:00;9;19;23
26.05.2023;13:00;10;17;24
26.05.2023;14:00;8;16;24
26.05.2023;15:00;<7;12;24
26.05.2023;16:00;<7;15;24
26.05.2023;17:00;;;24
26.05.2023;18:00;<7;11;25
26.05.2023;19:00;<7;<10;25
26.05.2023;20:00;<7;10;25
26.05.2023;21:00;<7;<10;24
26.05.2023;22:00;<7;12;24
26.05.2023;23:00;<7;12;24
26.05.2023;24:00;<7;11;24
27.05.2023;01:00;<7;<10;24
27.05.2023;02:00;<7;<10;24
27.05.2023;03:00;<7;<10;23
27.05.2023;04:00;<7;<10;23
27.05.2023;05:00;<7;13;22
27.05.2023;06:00;<7;17;22
27.05.2023;07:00;<7;16;21
27.05.2023;08:00;<7;17;21
27.05.2023;09:00;8;17;21
27.05.2023;10:00;7;17;21
27.05.2023;11:00;12;22;20
27.05.2023;12:00;<7;13;20
27.05.2023;13:00;<7;14;19
27.05.2023;14:00;<7;15;19
27.05.2023;15:00;<7;14;19
27.05.2023;16:00;<7;12;19
27.05.2023;17:00;<7;11;19
27.05.2023;18:00;;;19
27.05.2023;19:00;<7;13;18
27.05.2023;20:00;<7;10;18
27.05.2023;21:00;<7;13;18
27.05.2023;22:00;<7;16;17
27.05.2023;23:00;<7;13;17
27.05.2023;24:00;<7;14;17
28.05.2023;01:00;<7;16;16
28.05.2023;02:00;<7;17;16
28.05.2023;03:00;<7;19;16
28.05.2023;04:00;<7;27;17
28.05.2023;05:00;<7;27;17
28.05.2023;06:00;<7;23;17
28.05.2023;07:00;<7;24;17
28.05.2023;08:00;8;27;16
28.05.2023;09:00;<7;15;16
28.05.2023;10:00;<7;10;16
28.05.2023;11:00;<7;<10;15
28.05.2023;12:00;<7;<10;15
28.05.2023;13:00;<7;<10;15
28.05.2023;14:00;<7;<10;15
28.05.2023;15:00;<7;<10;14
28.05.2023;16:00;<7;<10;14
28.05.2023;17:00;<7;<10;14
28.05.2023;18:00;<7;<10;14
28.05.2023;19:00;;;14
28.05.2023;20:00;<7;<10;14
28.05.2023;21:00;<7;<10;14
28.05.2023;22:00;<7;<10;14
28.05.2023;23:00;<7;<10;14
28.05.2023;24:00;<7;<10;14
29.05.2023;01:00;<7;<10;13
29.05.2023;02:00;<7;<10;13
29.05.2023;03:00;<7;<10;13
29.05.2023;04:00;<7;<10;13
29.05.2023;05:00;<7;<10;12
29.05.2023;06:00;<7;<10;12
29.05.2023;07:00;<7;<10;12
29.05.2023;08:00;<7;<10;12
29.05.2023;09:00;<7;<10;12
29.05.2023;10:00;<7;<10;12
29.05.2023;11:00;<7;<10;12
29.05.2023;12:00;<7;<10;12
29.05.2023;13:00;<7;<10;12
29.05.2023;14:00;<7;<10;12
29.05.2023;15:00;<7;<10;12
29.05.2023;16:00;<7;<10;12
29.05.2023;17:00;<7;<10;12
29.05.2023;18:00;<7;<10;12
29.05.2023;19:00;<7;<10;12
29.05.2023;20:00;;;12
29.05.2023;21:00;<7;11;12
29.05.2023;22:00;<7;<10;12
29.05.2023;23:00;<7;10;12
29.05.2023;24:00;<7;<10;12
30.05.2023;01:00;<7;<10;12
30.05.2023;02:00;<7;<10;12
30.05.2023;03:00;<7;<10;12
30.05.2023;04:00;<7;11;13
30.05.2023;05:00;<7;17;13
30.05.2023;06:00;<7;13;13
30.05.2023;07:00;<7;15;14
30.05.2023;08:00;9;17;14
30.05.2023;09:00;<7;14;14
30.05.2023;10:00;7;18;15
30.05.2023;11:00;7;19;15
30.05.2023;12:00;<7;16;15
30.05.2023;13:00;<7;18;16
30.05.2023;14:00;<7;15;16
30.05.2023;15:00;<7;15;16
30.05.2023;16:00;<7;15;16
30.05.2023;17:00;<7;16;17
30.05.2023;18:00;<7;13;17
30.05.2023;19:00;<7;13;17
30.05.2023;20:00;<7;11;17
30.05.2023;21:00;;;17
30.05.2023;22:00;<7;14;17
30.05.2023;23:00;<7;18;17
30.05.2023;24:00;<7;12;17
31.05.2023;01:00;<7;<10;16
31.05.2023;02:00;<7;12;16
31.05.2023;03:00;<7;12;16
31.05.2023;04:00;<7;16;16
31.05.2023;05:00;<7;25;16
31.05.2023;06:00;19;30;16
31.05.2023;07:00;27;33;16
31.05.2023;08:00;29;34;16
31.05.2023;09:00;20;30;16
31.05.2023;10:00;17;32;16
31.05.2023;11:00;11;28;16
31.05.2023;12:00;11;23;16
31.05.2023;13:00;7;18;16
31.05.2023;14:00;<7;14;16
31.05.2023;15:00;8;18;16
31.05.2023;16:00;<7;16;16
31.05.2023;17:00;<7;14;15
31.05.2023;18:00;<7;15;15
31.05.2023;19:00;<7;16;15
31.05.2023;20:00;<7;17;15
31.05.2023;21:00;<7;21;15
31.05.2023;22:00;;;15
31.05.2023;23:00;<7;19;15
31.05.2023;24:00;<7;12;16
01.06.2023;01:00;<7;13;16
01.06.2023;02:00;<7;14;16
01.06.2023;03:00;<7;16;16
01.06.2023;04:00;<7;<10;17
01.06.2023;05:00;<7;13;17
01.06.2023;06:00;<7;26;17
01.06.2023;07:00;15;32;19
01.06.2023;08:00;17;29;19
01.06.2023;09:00;11;19;19
01.06.2023;10:00;10;15;19
01.06.2023;11:00;<7;12;19
01.06.2023;12:00;<7;11;20
01.06.2023;13:00;<7;11;20
01.06.2023;14:00;<7;11;20
01.06.2023;15:00;<7;10;20
01.06.2023;16:00;<7;11;21
01.06.2023;17:00;<7;<10;21
01.06.2023;18:00;<7;<10;21
01.06.2023;19:00;<7;<10;21
01.06.2023;20:00;<7;<10;22
01.06.2023;21:00;<7;12;22
01.06.2023;22:00;<7;10;22
01.06.2023;23:00;;;22
01.06.2023;24:00;<7;<10;21
02.06.2023;01:00;<7;<10;21
02.06.2023;02:00;<7;<10;21
02.06.2023;03:00;<7;<10;21
02.06.2023;04:00;<7;<10;21
02.06.2023;05:00;<7;<10;21
02.06.2023;06:00;8;23;21
02.06.2023;07:00;<7;13;20
02.06.2023;08:00;;;19
02.06.2023;09:00;<7;11;19
02.06.2023;10:00;8;14;19
02.06.2023;11:00;<7;11;19
02.06.2023;12:00;10;13;20
02.06.2023;13:00;8;<10;20
02.06.2023;14:00;7;10;20
02.06.2023;15:00;8;<10;20
02.06.2023;16:00;<7;<10;20
02.06.2023;17:00;7;<10;20
02.06.2023;18:00;<7;<10;20
02.06.2023;19:00;<7;<10;20
02.06.2023;20:00;<7;<10;20
02.06.2023;21:00;<7;22;20
02.06.2023;22:00;<7;20;20
02.06.2023;23:00;<7;30;21
02.06.2023;24:00;<7;23;21
03.06.2023;01:00;<7;23;21
03.06.2023;02:00;<7;24;22
03.06.2023;03:00;<7;20;22
03.06.2023;04:00;<7;19;21
03.06.2023;05:00;<7;22;21
03.06.2023;06:00;<7;17;21
03.06.2023;07:00;<7;13;20
03.06.2023;08:00;8;16;20
03.06.2023;09:00;;;19
03.06.2023;10:00;<7;13;19
03.06.2023;11:00;<7;15;18
03.06.2023;12:00;<7;14;18
03.06.2023;13:00;<7;14;17
03.06.2023;14:00;<7;12;17
03.06.2023;15:00;<7;10;17
03.06.2023;16:00;<7;11;16
03.06.2023;17:00;<7;<10;16
03.06.2023;18:00;<7;<10;15
03.06.2023;19:00;<7;<10;15
03.06.2023;20:00;<7;12;15
03.06.2023;21:00;<7;14;15
03.06.2023;22:00;<7;19;14
03.06.2023;23:00;<7;25;14
03.06.2023;24:00;<7;24;14
04.06.2023;01:00;<7;23;13
04.06.2023;02:00;<7;22;13
04.06.2023;03:00;<7;16;13
04.06.2023;04:00;<7;<10;12
04.06.2023;05:00;<7;14;12
04.06.2023;06:00;<7;17;12
04.06.2023;07:00;<7;21;12
04.06.2023;08:00;<7;21;12
04.06.2023;09:00;11;27;12
04.06.2023;10:00;;;12
04.06.2023;11:00;<7;14;12
04.06.2023;12:00;<7;<10;12
04.06.2023;13:00;<7;<10;12
04.06.2023;14:00;<7;10;11
04.06.2023;15:00;<7;<10;11
04.06.2023;16:00;<7;<10;11
04.06.2023;17:00;<7;11;11
04.06.2023;18:00;<7;<10;11
04.06.2023;19:00;<7;<10;11
04.06.2023;20:00;<7;<10;11
04.06.2023;21:00;<7;15;11
04.06.2023;22:00;<7;23;11
04.06.2023;23:00;<7;23;11
04.06.2023;24:00;<7;11;11
05.06.2023;01:00;<7;<10;11
05.06.2023;02:00;<7;<10;11
05.06.2023;03:00;<7;<10;11
05.06.2023;04:00;<7;<10;11
05.06.2023;05:00;<7;17;11
05.06.2023;06:00;8;23;11
05.06.2023;07:00;15;32;11
05.06.2023;08:00;23;36;12
05.06.2023;09:00;19;32;12
05.06.2023;10:00;9;24;12
05.06.2023;11:00;;;13
05.06.2023;12:00;8;23;13
05.06.2023;13:00;7;21;14
05.06.2023;14:00;<7;17;14
05.06.2023;15:00;<7;18;14
05.06.2023;16:00;<7;17;14
05.06.2023;17:00;<7;18;14
05.06.2023;18:00;<7;16;15
05.06.2023;19:00;<7;16;15
05.06.2023;20:00;<7;14;15
05.06.2023;21:00;<7;17;15
05.06.2023;22:00;<7;19;15
05.06.2023;23:00;<7;20;16
05.06.2023;24:00;<7;13;16
06.06.2023;01:00;<7;11;17
06.06.2023;02:00;<7;12;17
06.06.2023;03:00;<7;14;17
06.06.2023;04:00;<7;14;18
06.06.2023;05:00;<7;22;18
06.06.2023;06:00;9;27;19
06.06.2023;07:00;13;27;20
06.06.2023;08:00;18;31;20
06.06.2023;09:00;14;28;20
06.06.2023;10:00;14;27;21
06.06.2023;11:00;9;21;21
06.06.2023;12:00;;;21
06.06.2023;13:00;<7;13;21
06.06.2023;14:00;<7;14;21
06.06.2023;15:00;<7;14;21
06.06.2023;16:00;<7;14;22
06.06.2023;17:00;<7;11;22
06.06.2023;18:00;<7;17;22
06.06.2023;19:00;<7;<10;22
06.06.2023;20:00;<7;<10;22
06.06.2023;21:00;<7;13;21
06.06.2023;22:00;<7;13;21
06.06.2023;23:00;<7;<10;21
06.06.2023;24:00;<7;<10;22
07.06.2023;01:00;<7;<10;21
07.06.2023;02:00;<7;<10;21
07.06.2023;03:00;<7;<10;22
07.06.2023;04:00;<7;<10;22
07.06.2023;05:00;<7;17;21
07.06.2023;06:00;<7;19;21
07.06.2023;07:00;10;27;21
07.06.2023;08:00;10;23;21
07.06.2023;09:00;7;24;21
07.06.2023;10:00;17;28;21
07.06.2023;11:00;18;24;21
07.06.2023;12:00;20;25;21
07.06.2023;13:00;;;21
07.06.2023;14:00;8;15;21
07.06.2023;15:00;<7;16;22
07.06.2023;16:00;<7;14;22
07.06.2023;17:00;<7;10;22
07.06.2023;18:00;<7;15;22
07.06.2023;19:00;<7;17;23
07.06.2023;20:00;<7;18;23
07.06.2023;21:00;<7;21;23
07.06.2023;22:00;<7;28;24
07.06.2023;23:00;<7;21;24
07.06.2023;24:00;<7;13;24
08.06.2023;01:00;<7;<10;24
08.06.2023;02:00;<7;<10;24
08.06.2023;03:00;<7;<10;24
08.06.2023;04:00;<7;<10;24
08.06.2023;05:00;<7;<10;24
08.06.2023;06:00;<7;<10;24
08.06.2023;07:00;<7;<10;23
08.06.2023;08:00;<7;<10;23
08.06.2023;09:00;<7;12;22
08.06.2023;10:00;<7;10;22
08.06.2023;11:00;<7;<10;22
08.06.2023;12:00;<7;<10;21
08.06.2023;13:00;<7;<10;21
08.06.2023;14:00;;;21
08.06.2023;15:00;<7;<10;21
08.06.2023;16:00;<7;<10;20
08.06.2023;17:00;<7;<10;20
08.06.2023;18:00;<7;<10;20
08.06.2023;19:00;<7;<10;20
08.06.2023;20:00;<7;<10;20
08.06.2023;21:00;<7;<10;20
08.06.2023;22:00;<7;<10;19
08.06.2023;23:00;<7;15;19
08.06.2023;24:00;<7;19;19
09.06.2023;01:00;<7;11;19
09.06.2023;02:00;<7;<10;19
09.06.2023;03:00;<7;<10;19
09.06.2023;04:00;<7;10;19
09.06.2023;05:00;8;24;19
09.06.2023;06:00;8;29;20
09.06.2023;07:00;15;35;20
09.06.2023;08:00;14;33;21
09.06.2023;09:00;12;25;22
09.06.2023;10:00;11;26;22
09.06.2023;11:00;12;20;22
09.06.2023;12:00;11;17;22
09.06.2023;13:00;11;18;22
09.06.2023;14:00;9;16;22
09.06.2023;15:00;;;22
09.06.2023;16:00;<7;18;22
09.06.2023;17:00;8;19;23
09.06.2023;18:00;<7;16;23
09.06.2023;19:00;<7;16;23
09.06.2023;20:00;<7;13;23
09.06.2023;21:00;<7;15;23
09.06.2023;22:00;<7;17;24
09.06.2023;23:00;<7;17;24
09.06.2023;24:00;<7;19;24
10.06.2023;01:00;<7;27;24
10.06.2023;02:00;<7;31;24
10.06.2023;03:00;<7;28;24
10.06.2023;04:00;<7;26;24
10.06.2023;05:00;<7;23;24
10.06.2023;06:00;<7;30;25
10.06.2023;07:00;13;27;24
10.06.2023;08:00;<7;26;24
10.06.2023;09:00;<7;25;24
10.06.2023;10:00;11;31;23
10.06.2023;11:00;<7;28;23
10.06.2023;12:00;<7;22;24
10.06.2023;13:00;<7;18;24
10.06.2023;14:00;<7;15;24
10.06.2023;15:00;<7;17;24
10.06.2023;16:00;;;24
10.06.2023;17:00;<7;12;24
10.06.2023;18:00;<7;14;24
10.06.2023;19:00;<7;13;24
10.06.2023;20:00;<7;<10;24
10.06.2023;21:00;<7;12;24
10.06.2023;22:00;<7;12;24
10.06.2023;23:00;<7;16;24
10.06.2023;24:00;<7;16;24
11.06.2023;01:00;<7;21;24
11.06.2023;02:00;<7;21;24
11.06.2023;03:00;<7;17;24
11.06.2023;04:00;<7;16;24
11.06.2023;05:00;<7;17;24
11.06.2023;06:00;<7;16;24
11.06.2023;07:00;<7;13;24
11.06.2023;08:00;<7;<10;24
11.06.2023;09:00;<7;<10;24
11.06.2023;10:00;<7;<10;23
11.06.2023;11:00;<7;<10;23
11.06.2023;12:00;<7;<10;23
11.06.2023;13:00;<7;<10;23
11.06.2023;14:00;<7;<10;22
11.06.2023;15:00;<7;<10;22
11.06.2023;16:00;<7;<10;22
11.06.2023;17:00;;;22
11.06.2023;18:00;<7;<10;22
11.06.2023;19:00;<7;11;22
11.06.2023;20:00;<7;14;22
11.06.2023;21:00;<7;13;21
11.06.2023;22:00;<7;17;21
11.06.2023;23:00;<7;19;21
11.06.2023;24:00;<7;17;20
12.06.2023;01:00;<7;25;20
12.06.2023;02:00;<7;22;20
12.06.2023;03:00;<7;32;20
12.06.2023;04:00;<7;39;19
12.06.2023;05:00;<7;47;19
12.06.2023;06:00;13;48;19
12.06.2023;07:00;21;45;20
12.06.2023;08:00;21;46;20
12.06.2023;09:00;10;26;21
12.06.2023;10:00;9;20;21
12.06.2023;11:00;8;19;21
12.06.2023;12:00;11;26;21
12.06.2023;13:00;10;26;21
12.06.2023;14:00;9;29;21
12.06.2023;15:00;21;36;22
12.06.2023;16:00;9;26;22
12.06.2023;17:00;<7;16;22
12.06.2023;18:00;;;22
12.06.2023;19:00;<7;11;22
12.06.2023;20:00;<7;16;22
12.06.2023;21:00;<7;14;23
12.06.2023;22:00;<7;14;23
12.06.2023;23:00;<7;18;23
12.06.2023;24:00;<7;23;23
13.06.2023;01:00;<7;19;23
13.06.2023;02:00;<7;16;23
13.06.2023;03:00;<7;22;23
13.06.2023;04:00;<7;30;23
13.06.2023;05:00;<7;30;23
13.06.2023;06:00;9;37;23
13.06.2023;07:00;21;44;23
13.06.2023;08:00;17;40;23
13.06.2023;09:00;14;32;24
13.06.2023;10:00;11;24;24
13.06.2023;11:00;<7;20;24
13.06.2023;12:00;<7;15;24
13.06.2023;13:00;<7;14;24
13.06.2023;14:00;11;19;24
13.06.2023;15:00;8;17;24
13.06.2023;16:00;<7;14;24
13.06.2023;17:00;<7;13;23
13.06.2023;18:00;<7;11;23
13.06.2023;19:00;;;23
13.06.2023;20:00;<7;13;23
13.06.2023;21:00;<7;12;23
13.06.2023;22:00;<7;22;23
13.06.2023;23:00;<7;30;23
13.06.2023;24:00;<7;31;23
14.06.2023;01:00;<7;26;23
14.06.2023;02:00;<7;17;24
14.06.2023;03:00;<7;14;24
14.06.2023;04:00;<7;13;24
14.06.2023;05:00;<7;17;23
14.06.2023;06:00;9;26;23
14.06.2023;07:00;18;34;23
14.06.2023;08:00;18;24;23
14.06.2023;09:00;31;29;22
14.06.2023;10:00;10;21;22
14.06.2023;11:00;<7;13;22
14.06.2023;12:00;8;16;22
14.06.2023;13:00;10;14;21
14.06.2023;14:00;7;14;21
14.06.2023;15:00;10;16;21
14.06.2023;16:00;8;17;21
14.06.2023;17:00;<7;11;21
14.06.2023;18:00;<7;12;21
14.06.2023;19:00;<7;12;20
14.06.2023;20:00;;;20
14.06.2023;21:00;<7;11;20
14.06.2023;22:00;<7;19;19
14.06.2023;23:00;<7;40;20
14.06.2023;24:00;<7;34;19
15.06.2023;01:00;<7;25;19
15.06.2023;02:00;<7;29;19
15.06.2023;03:00;<7;40;19
15.06.2023;04:00;<7;34;19
15.06.2023;05:00;8;38;20
15.06.2023;06:00;18;44;20
15.06.2023;07:00;29;49;20
15.06.2023;08:00;21;46;21
15.06.2023;09:00;13;39;22
15.06.2023;10:00;11;30;22
15.06.2023;11:00;<7;22;22
15.06.2023;12:00;7;20;22
15.06.2023;13:00;<7;12;23
15.06.2023;14:00;<7;15;23
15.06.2023;15:00;<7;17;23
15.06.2023;16:00;<7;14;23
15.06.2023;17:00;<7;12;23
15.06.2023;18:00;<7;14;23
15.06.2023;19:00;<7;14;23
15.06.2023;20:00;<7;11;24
15.06.2023;21:00;;;24
15.06.2023;22:00;<7;44;24
15.06.2023;23:00;<7;20;24
15.06.2023;24:00;<7;15;24
16.06.2023;01:00;<7;24;24
16.06.2023;02:00;<7;26;24
16.06.2023;03:00;<7;13;24
16.06.2023;04:00;<7;25;24
16.06.2023;05:00;8;46;24
16.06.2023;06:00;19;51;23
16.06.2023;07:00;23;50;23
16.06.2023;08:00;28;59;23
16.06.2023;09:00;15;40;23
16.06.2023;10:00;<7;25;23
16.06.2023;11:00;<7;16;22
16.06.2023;12:00;8;16;22
16.06.2023;13:00;8;16;22
16.06.2023;14:00;<7;10;22
16.06.2023;15:00;<7;14;21
16.06.2023;16:00;<7;13;21
16.06.2023;17:00;<7;12;21
16.06.2023;18:00;<7;17;21
16.06.2023;19:00;<7;12;21
16.06.2023;20:00;<7;13;21
16.06.2023;21:00;<7;14;21
16.06.2023;22:00;;;21
16.06.2023;23:00;<7;11;21
16.06.2023;24:00;<7;13;20
17.06.2023;01:00;<7;14;20
17.06.2023;02:00;<7;33;20
17.06.2023;03:00;<7;24;20
17.06.2023;04:00;<7;40;20
17.06.2023;05:00;<7;43;20
17.06.2023;06:00;<7;36;20
17.06.2023;07:00;<7;25;21
17.06.2023;08:00;<7;12;20
17.06.2023;09:00;7;33;19
17.06.2023;10:00;7;38;19
17.06.2023;11:00;<7;13;19
17.06.2023;12:00;<7;11;19
17.06.2023;13:00;<7;<10;19
17.06.2023;14:00;<7;14;19
17.06.2023;15:00;<7;<10;19
17.06.2023;16:00;<7;<10;19
17.06.2023;17:00;<7;15;19
17.06.2023;18:00;<7;13;19
17.06.2023;19:00;<7;14;18
17.06.2023;20:00;<7;<10;18
17.06.2023;21:00;<7;34;18
17.06.2023;22:00;11;77;19
17.06.2023;23:00;;;19
17.06.2023;24:00;16;79;20
18.06.2023;01:00;12;71;20
18.06.2023;02:00;<7;54;20
18.06.2023;03:00;<7;51;21
18.06.2023;04:00;<7;58;21
18.06.2023;05:00;<7;39;21
18.06.2023;06:00;<7;30;21
18.06.2023;07:00;<7;26;20
18.06.2023;08:00;<7;20;20
18.06.2023;09:00;<7;23;20
18.06.2023;10:00;<7;16;20
18.06.2023;11:00;<7;15;20
18.06.2023;12:00;<7;25;20
18.06.2023;13:00;<7;20;20
18.06.2023;14:00;<7;23;20
18.06.2023;15:00;<7;25;21
18.06.2023;16:00;<7;20;21
18.06.2023;17:00;<7;17;21
18.06.2023;18:00;<7;22;21
18.06.2023;19:00;<7;26;21
18.06.2023;20:00;<7;24;21
18.06.2023;21:00;<7;24;21
18.06.2023;22:00;<7;19;21
18.06.2023;23:00;<7;17;21
18.06.2023;24:00;;;21
19.06.2023;01:00;<7;<10;21
19.06.2023;02:00;<7;<10;20
19.06.2023;03:00;<7;<10;19
19.06.2023;04:00;<7;14;19
19.06.2023;05:00;8;21;19
19.06.2023;06:00;11;23;18
19.06.2023;07:00;17;28;18
19.06.2023;08:00;22;34;18
19.06.2023;09:00;21;28;18
19.06.2023;10:00;11;18;18
19.06.2023;11:00;12;17;18
19.06.2023;12:00;14;15;18
19.06.2023;13:00;15;19;17
19.06.2023;14:00;11;18;17
19.06.2023;15:00;<7;14;17
19.06.2023;16:00;10;17;17
19.06.2023;17:00;7;16;17
19.06.2023;18:00;<7;14;17
19.06.2023;19:00;<7;22;17
19.06.2023;20:00;<7;15;17
19.06.2023;21:00;<7;12;17
19.06.2023;22:00;<7;25;17
19.06.2023;23:00;<7;28;17
19.06.2023;24:00;<7;24;17
20.06.2023;01:00;;;17
20.06.2023;02:00;<7;23;17
20.06.2023;03:00;<7;19;17
20.06.2023;04:00;<7;17;18
20.06.2023;05:00;8;26;18
20.06.2023;06:00;19;34;18
20.06.2023;07:00;42;55;18
20.06.2023;08:00;23;37;18
20.06.2023;09:00;19;30;18
20.06.2023;10:00;22;42;18
20.06.2023;11:00;14;28;18
20.06.2023;12:00;12;31;18
20.06.2023;13:00;12;36;18
20.06.2023;14:00;10;32;18
20.06.2023;15:00;14;37;18
20.06.2023;16:00;16;36;18
20.06.2023;17:00;9;33;18
20.06.2023;18:00;9;24;19
20.06.2023;19:00;8;19;19
20.06.2023;20:00;<7;13;19
20.06.2023;21:00;<7;<10;18
20.06.2023;22:00;<7;<10;18
20.06.2023;23:00;<7;20;17
20.06.2023;24:00;<7;<10;17
21.06.2023;01:00;<7;<10;16
21.06.2023;02:00;;;16
21.06.2023;03:00;<7;<10;15
21.06.2023;04:00;<7;11;15
21.06.2023;05:00;10;25;14
21.06.2023;06:00;24;37;14
21.06.2023;07:00;33;41;14
21.06.2023;08:00;25;34;14
21.06.2023;09:00;18;29;15
21.06.2023;10:00;13;17;15
21.06.2023;11:00;11;19;15
21.06.2023;12:00;10;16;15
21.06.2023;13:00;<7;11;15
21.06.2023;14:00;<7;12;15
21.06.2023;15:00;<7;13;15
21.06.2023;16:00;<7;13;15
21.06.2023;17:00;<7;16;15
21.06.2023;18:00;<7;15;15
21.06.2023;19:00;<7;19;14
21.06.2023;20:00;<7;12;14
21.06.2023;21:00;<7;13;14
21.06.2023;22:00;<7;19;14
21.06.2023;23:00;<7;<10;14
21.06.2023;24:00;<7;15;14
22.06.2023;01:00;<7;18;15
22.06.2023;02:00;<7;<10;15
22.06.2023;03:00;;;16
22.06.2023;04:00;;;16
22.06.2023;05:00;;;17
22.06.2023;06:00;<7;36;17
22.06.2023;07:00;13;47;17
22.06.2023;08:00;12;53;18
22.06.2023;09:00;17;52;18
22.06.2023;10:00;17;50;18
22.06.2023;11:00;12;42;19
22.06.2023;12:00;8;29;20
22.06.2023;13:00;10;36;20
22.06.2023;14:00;7;37;21
22.06.2023;15:00;<7;29;22
22.06.2023;16:00;<7;24;23
22.06.2023;17:00;<7;22;23
22.06.2023;18:00;<7;22;24
22.06.2023;19:00;<7;14;24
22.06.2023;20:00;<7;12;24
22.06.2023;21:00;<7;12;24
22.06.2023;22:00;<7;11;24
22.06.2023;23:00;<7;<10;24
22.06.2023;24:00;<7;<10;24
23.06.2023;01:00;<7;<10;23
23.06.2023;02:00;<7;<10;23
23.06.2023;03:00;<7;<10;23
23.06.2023;04:00;;;22
23.06.2023;05:00;<7;16;22
23.06.2023;06:00;<7;14;21
23.06.2023;07:00;<7;20;21
23.06.2023;08:00;<7;16;20
23.06.2023;09:00;<7;15;19
23.06.2023;10:00;<7;14;18
23.06.2023;11:00;<7;<10;17
23.06.2023;12:00;<7;10;16
23.06.2023;13:00;<7;<10;16
23.06.2023;14:00;<7;10;15
23.06.2023;15:00;<7;10;14
23.06.2023;16:00;<7;<10;13
23.06.2023;17:00;<7;12;11
23.06.2023;18:00;<7;<10;11
23.06.2023;19:00;<7;<10;10
23.06.2023;20:00;<7;<10;<10
23.06.2023;21:00;<7;20;10
23.06.2023;22:00;<7;32;11
23.06.2023;23:00;<7;37;11
23.06.2023;24:00;8;40;11
24.06.2023;01:00;10;44;12
24.06.2023;02:00;<7;36;12
24.06.2023;03:00;<7;31;13
24.06.2023;04:00;8;31;13
24.06.2023;05:00;;;13
24.06.2023;06:00;<7;25;13
24.06.2023;07:00;8;29;13
24.06.2023;08:00;;;13
24.06.2023;09:00;14;34;14
24.06.2023;10:00;10;27;14
24.06.2023;11:00;7;19;15
24.06.2023;12:00;<7;16;15
24.06.2023;13:00;<7;19;15
24.06.2023;14:00;<7;14;15
24.06.2023;15:00;<7;20;15
24.06.2023;16:00;<7;15;15
24.06.2023;17:00;<7;24;15
24.06.2023;18:00;<7;26;15
24.06.2023;19:00;<7;20;15
24.06.2023;20:00;<7;17;14
24.06.2023;21:00;<7;20;14
24.06.2023;22:00;<7;21;14
24.06.2023;23:00;<7;44;14
24.06.2023;24:00;<7;39;14
25.06.2023;01:00;<7;42;13
25.06.2023;02:00;<7;44;13
25.06.2023;03:00;<7;53;14
25.06.2023;04:00;<7;47;14
25.06.2023;05:00;<7;44;14
25.06.2023;06:00;;;14
25.06.2023;07:00;<7;27;14
25.06.2023;08:00;<7;20;14
25.06.2023;09:00;;;13
25.06.2023;10:00;<7;26;13
25.06.2023;11:00;<7;27;13
25.06.2023;12:00;<7;17;13
25.06.2023;13:00;<7;22;13
25.06.2023;14:00;<7;18;13
25.06.2023;15:00;<7;18;13
25.06.2023;16:00;<7;20;14
25.06.2023;17:00;<7;20;14
25.06.2023;18:00;<7;21;14
25.06.2023;19:00;<7;22;14
25.06.2023;20:00;<7;21;14
25.06.2023;21:00;<7;21;14
25.06.2023;22:00;<7;21;15
25.06.2023;23:00;<7;23;15
25.06.2023;24:00;<7;34;15
26.06.2023;01:00;<7;20;15
26.06.2023;02:00;<7;15;14
26.06.2023;03:00;<7;15;14
26.06.2023;04:00;<7;27;14
26.06.2023;05:00;<7;31;14
26.06.2023;06:00;9;34;15
26.06.2023;07:00;;;15
26.06.2023;08:00;9;24;15